Year,Month,Day,Hour,Minute,Value (Times are PST for temperature in C)
2013,07,03,00,00,15.70
2013,07,03,00,01,15.80
2013,07,03,00,02,15.80
2013,07,03,00,03,15.80
2013,07,03,00,04,15.90
2013,07,03,00,05,15.90
2013,07,03,00,06,15.90
2013,07,03,00,07,16.00
2013,07,03,00,08,16.00
2013,07,03,00,09,16.00
2013,07,03,00,10,16.10
2013,07,03,00,11,16.10
2013,07,03,00,12,16.10
2013,07,03,00,13,16.10
2013,07,03,00,14,16.10
2013,07,03,00,15,16.10
2013,07,03,00,16,16.10
2013,07,03,00,17,16.00
2013,07,03,00,18,16.00
2013,07,03,00,19,15.90
2013,07,03,00,20,15.80
2013,07,03,00,21,15.70
2013,07,03,00,22,15.60
2013,07,03,00,23,15.50
2013,07,03,00,24,15.40
2013,07,03,00,25,15.30
2013,07,03,00,26,15.30
2013,07,03,00,27,15.20
2013,07,03,00,28,15.10
2013,07,03,00,29,15.10
2013,07,03,00,30,15.00
2013,07,03,00,31,15.00
2013,07,03,00,32,14.90
2013,07,03,00,33,14.90
2013,07,03,00,34,14.80
2013,07,03,00,35,14.80
2013,07,03,00,36,14.80
2013,07,03,00,37,14.70
2013,07,03,00,38,14.70
2013,07,03,00,39,14.70
2013,07,03,00,40,14.70
2013,07,03,00,41,14.60
2013,07,03,00,42,14.60
2013,07,03,00,43,14.60
2013,07,03,00,44,14.60
2013,07,03,00,45,14.50
2013,07,03,00,46,14.50
2013,07,03,00,47,14.40
2013,07,03,00,48,14.40
2013,07,03,00,49,14.30
2013,07,03,00,50,14.30
2013,07,03,00,51,14.30
2013,07,03,00,52,14.30
2013,07,03,00,53,14.30
2013,07,03,00,54,14.30
2013,07,03,00,55,14.30
2013,07,03,00,56,14.30
2013,07,03,00,57,14.30
2013,07,03,00,58,14.30
2013,07,03,00,59,14.30
2013,07,03,01,00,14.30
2013,07,03,01,01,14.30
2013,07,03,01,02,14.30
2013,07,03,01,03,14.20
2013,07,03,01,04,14.20
2013,07,03,01,05,14.20
2013,07,03,01,06,14.20
2013,07,03,01,07,14.20
2013,07,03,01,08,14.10
2013,07,03,01,09,14.10
2013,07,03,01,10,14.10
2013,07,03,01,11,14.10
2013,07,03,01,12,14.10
2013,07,03,01,13,14.00
2013,07,03,01,14,14.00
2013,07,03,01,15,13.90
2013,07,03,01,16,13.90
2013,07,03,01,17,13.90
2013,07,03,01,18,13.90
2013,07,03,01,19,13.80
2013,07,03,01,20,13.80
2013,07,03,01,21,13.80
2013,07,03,01,22,13.70
2013,07,03,01,23,13.70
2013,07,03,01,24,13.70
2013,07,03,01,25,13.60
2013,07,03,01,26,13.60
2013,07,03,01,27,13.60
2013,07,03,01,28,13.50
2013,07,03,01,29,13.50
2013,07,03,01,30,13.40
2013,07,03,01,31,13.40
2013,07,03,01,32,13.40
2013,07,03,01,33,13.40
2013,07,03,01,34,13.30
2013,07,03,01,35,13.30
2013,07,03,01,36,13.30
2013,07,03,01,37,13.30
2013,07,03,01,38,13.30
2013,07,03,01,39,13.30
2013,07,03,01,40,13.20
2013,07,03,01,41,13.20
2013,07,03,01,42,13.20
2013,07,03,01,43,13.20
2013,07,03,01,44,13.10
2013,07,03,01,45,13.10
2013,07,03,01,46,13.10
2013,07,03,01,47,13.10
2013,07,03,01,48,13.00
2013,07,03,01,49,13.00
2013,07,03,01,50,13.00
2013,07,03,01,51,13.00
2013,07,03,01,52,13.00
2013,07,03,01,53,13.00
2013,07,03,01,54,13.00
2013,07,03,01,55,12.90
2013,07,03,01,56,12.90
2013,07,03,01,57,12.90
2013,07,03,01,58,12.90
2013,07,03,01,59,12.90
2013,07,03,02,00,12.90
2013,07,03,02,01,12.80
2013,07,03,02,02,12.80
2013,07,03,02,03,12.80
2013,07,03,02,04,12.80
2013,07,03,02,05,12.80
2013,07,03,02,06,12.80
2013,07,03,02,07,12.70
2013,07,03,02,08,12.70
2013,07,03,02,09,12.70
2013,07,03,02,10,12.70
2013,07,03,02,11,12.60
2013,07,03,02,12,12.60
2013,07,03,02,13,12.60
2013,07,03,02,14,12.60
2013,07,03,02,15,12.60
2013,07,03,02,16,12.60
2013,07,03,02,17,12.60
2013,07,03,02,18,12.60
2013,07,03,02,19,12.60
2013,07,03,02,20,12.60
2013,07,03,02,21,12.50
2013,07,03,02,22,12.50
2013,07,03,02,23,12.50
2013,07,03,02,24,12.50
2013,07,03,02,25,12.50
2013,07,03,02,26,12.50
2013,07,03,02,27,12.50
2013,07,03,02,28,12.60
2013,07,03,02,29,12.60
2013,07,03,02,30,12.60
2013,07,03,02,31,12.60
2013,07,03,02,32,12.60
2013,07,03,02,33,12.70
2013,07,03,02,34,12.70
2013,07,03,02,35,12.70
2013,07,03,02,36,12.70
2013,07,03,02,37,12.80
2013,07,03,02,38,12.80
2013,07,03,02,39,12.80
2013,07,03,02,40,12.80
2013,07,03,02,41,12.90
2013,07,03,02,42,12.90
2013,07,03,02,43,13.00
2013,07,03,02,44,13.10
2013,07,03,02,45,13.20
2013,07,03,02,46,13.20
2013,07,03,02,47,13.40
2013,07,03,02,48,13.50
2013,07,03,02,49,13.50
2013,07,03,02,50,13.60
2013,07,03,02,51,13.60
2013,07,03,02,52,13.60
2013,07,03,02,53,13.60
2013,07,03,02,54,13.50
2013,07,03,02,55,13.50
2013,07,03,02,56,13.50
2013,07,03,02,57,13.50
2013,07,03,02,58,13.40
2013,07,03,02,59,13.40
2013,07,03,03,00,13.40
2013,07,03,03,01,13.40
2013,07,03,03,02,13.50
2013,07,03,03,03,13.60
2013,07,03,03,04,13.60
2013,07,03,03,05,13.60
2013,07,03,03,06,13.70
2013,07,03,03,07,13.70
2013,07,03,03,08,13.70
2013,07,03,03,09,13.70
2013,07,03,03,10,13.70
2013,07,03,03,11,13.80
2013,07,03,03,12,13.80
2013,07,03,03,13,13.90
2013,07,03,03,14,13.90
2013,07,03,03,15,13.90
2013,07,03,03,16,13.90
2013,07,03,03,17,14.00
2013,07,03,03,18,14.00
2013,07,03,03,19,14.10
2013,07,03,03,20,14.10
2013,07,03,03,21,14.20
2013,07,03,03,22,14.20
2013,07,03,03,23,14.20
2013,07,03,03,24,14.20
2013,07,03,03,25,14.20
2013,07,03,03,26,14.20
2013,07,03,03,27,14.20
2013,07,03,03,28,14.20
2013,07,03,03,29,14.20
2013,07,03,03,30,14.20
2013,07,03,03,31,14.20
2013,07,03,03,32,14.10
2013,07,03,03,33,14.10
2013,07,03,03,34,14.10
2013,07,03,03,35,14.00
2013,07,03,03,36,14.00
2013,07,03,03,37,13.90
2013,07,03,03,38,13.90
2013,07,03,03,39,13.90
2013,07,03,03,40,13.80
2013,07,03,03,41,13.80
2013,07,03,03,42,13.80
2013,07,03,03,43,13.80
2013,07,03,03,44,13.80
2013,07,03,03,45,13.80
2013,07,03,03,46,13.80
2013,07,03,03,47,13.80
2013,07,03,03,48,13.90
2013,07,03,03,49,13.90
2013,07,03,03,50,14.00
2013,07,03,03,51,14.00
2013,07,03,03,52,14.10
2013,07,03,03,53,14.10
2013,07,03,03,54,14.10
2013,07,03,03,55,14.10
2013,07,03,03,56,14.10
2013,07,03,03,57,14.10
2013,07,03,03,58,14.10
2013,07,03,03,59,14.10
2013,07,03,04,00,14.10
2013,07,03,04,01,14.00
2013,07,03,04,02,14.00
2013,07,03,04,03,14.00
2013,07,03,04,04,14.00
2013,07,03,04,05,14.00
2013,07,03,04,06,13.90
2013,07,03,04,07,13.90
2013,07,03,04,08,13.90
2013,07,03,04,09,13.90
2013,07,03,04,10,13.90
2013,07,03,04,11,13.80
2013,07,03,04,12,13.80
2013,07,03,04,13,13.80
2013,07,03,04,14,13.80
2013,07,03,04,15,13.80
2013,07,03,04,16,13.80
2013,07,03,04,17,13.80
2013,07,03,04,18,13.80
2013,07,03,04,19,13.80
2013,07,03,04,20,13.80
2013,07,03,04,21,13.80
2013,07,03,04,22,13.80
2013,07,03,04,23,13.80
2013,07,03,04,24,13.80
2013,07,03,04,25,13.80
2013,07,03,04,26,13.90
2013,07,03,04,27,13.90
2013,07,03,04,28,13.90
2013,07,03,04,29,13.90
2013,07,03,04,30,13.90
2013,07,03,04,31,13.90
2013,07,03,04,32,14.00
2013,07,03,04,33,14.00
2013,07,03,04,34,14.00
2013,07,03,04,35,14.00
2013,07,03,04,36,14.00
2013,07,03,04,37,13.90
2013,07,03,04,38,13.80
2013,07,03,04,39,13.80
2013,07,03,04,40,13.70
2013,07,03,04,41,13.60
2013,07,03,04,42,13.60
2013,07,03,04,43,13.50
2013,07,03,04,44,13.40
2013,07,03,04,45,13.30
2013,07,03,04,46,13.30
2013,07,03,04,47,13.20
2013,07,03,04,48,13.10
2013,07,03,04,49,13.10
2013,07,03,04,50,13.00
2013,07,03,04,51,13.00
2013,07,03,04,52,12.90
2013,07,03,04,53,12.90
2013,07,03,04,54,12.80
2013,07,03,04,55,12.80
2013,07,03,04,56,12.80
2013,07,03,04,57,12.70
2013,07,03,04,58,12.70
2013,07,03,04,59,12.60
2013,07,03,05,00,12.60
2013,07,03,05,01,12.50
2013,07,03,05,02,12.50
2013,07,03,05,03,12.40
2013,07,03,05,04,12.40
2013,07,03,05,05,12.30
2013,07,03,05,06,12.30
2013,07,03,05,07,12.30
2013,07,03,05,08,12.20
2013,07,03,05,09,12.20
2013,07,03,05,10,12.20
2013,07,03,05,11,12.20
2013,07,03,05,12,12.10
2013,07,03,05,13,12.10
2013,07,03,05,14,12.10
2013,07,03,05,15,12.00
2013,07,03,05,16,12.00
2013,07,03,05,17,12.00
2013,07,03,05,18,11.90
2013,07,03,05,19,11.90
2013,07,03,05,20,11.90
2013,07,03,05,21,11.80
2013,07,03,05,22,11.80
2013,07,03,05,23,11.80
2013,07,03,05,24,11.80
2013,07,03,05,25,11.70
2013,07,03,05,26,11.70
2013,07,03,05,27,11.70
2013,07,03,05,28,11.70
2013,07,03,05,29,11.60
2013,07,03,05,30,11.60
2013,07,03,05,31,11.60
2013,07,03,05,32,11.50
2013,07,03,05,33,11.50
2013,07,03,05,34,11.50
2013,07,03,05,35,11.40
2013,07,03,05,36,11.40
2013,07,03,05,37,11.40
2013,07,03,05,38,11.40
2013,07,03,05,39,11.30
2013,07,03,05,40,11.30
2013,07,03,05,41,11.30
2013,07,03,05,42,11.30
2013,07,03,05,43,11.20
2013,07,03,05,44,11.20
2013,07,03,05,45,11.20
2013,07,03,05,46,11.20
2013,07,03,05,47,11.20
2013,07,03,05,48,11.10
2013,07,03,05,49,11.10
2013,07,03,05,50,11.10
2013,07,03,05,51,11.10
2013,07,03,05,52,11.10
2013,07,03,05,53,11.10
2013,07,03,05,54,11.10
2013,07,03,05,55,11.10
2013,07,03,05,56,11.10
2013,07,03,05,57,11.10
2013,07,03,05,58,11.10
2013,07,03,05,59,11.20
2013,07,03,06,00,11.20
2013,07,03,06,01,11.30
2013,07,03,06,02,11.40
2013,07,03,06,03,11.40
2013,07,03,06,04,11.50
2013,07,03,06,05,11.60
2013,07,03,06,06,11.70
2013,07,03,06,07,11.80
2013,07,03,06,08,11.80
2013,07,03,06,09,11.90
2013,07,03,06,10,12.00
2013,07,03,06,11,12.10
2013,07,03,06,12,12.10
2013,07,03,06,13,12.20
2013,07,03,06,14,12.20
2013,07,03,06,15,12.30
2013,07,03,06,16,12.30
2013,07,03,06,17,12.40
2013,07,03,06,18,12.40
2013,07,03,06,19,12.50
2013,07,03,06,20,12.50
2013,07,03,06,21,12.60
2013,07,03,06,22,12.70
2013,07,03,06,23,12.80
2013,07,03,06,24,12.90
2013,07,03,06,25,13.00
2013,07,03,06,26,13.10
2013,07,03,06,27,13.20
2013,07,03,06,28,13.30
2013,07,03,06,29,13.40
2013,07,03,06,30,13.50
2013,07,03,06,31,13.60
2013,07,03,06,32,13.70
2013,07,03,06,33,13.80
2013,07,03,06,34,13.90
2013,07,03,06,35,13.90
2013,07,03,06,36,14.00
2013,07,03,06,37,14.10
2013,07,03,06,38,14.20
2013,07,03,06,39,14.30
2013,07,03,06,40,14.40
2013,07,03,06,41,14.40
2013,07,03,06,42,14.50
2013,07,03,06,43,14.60
2013,07,03,06,44,14.80
2013,07,03,06,45,14.90
2013,07,03,06,46,15.00
2013,07,03,06,47,15.00
2013,07,03,06,48,15.10
2013,07,03,06,49,15.10
2013,07,03,06,50,15.20
2013,07,03,06,51,15.20
2013,07,03,06,52,15.20
2013,07,03,06,53,15.30
2013,07,03,06,54,15.30
2013,07,03,06,55,15.30
2013,07,03,06,56,15.30
2013,07,03,06,57,15.30
2013,07,03,06,58,15.40
2013,07,03,06,59,15.40
2013,07,03,07,00,15.50
2013,07,03,07,01,15.50
2013,07,03,07,02,15.60
2013,07,03,07,03,15.70
2013,07,03,07,04,15.70
2013,07,03,07,05,15.80
2013,07,03,07,06,15.80
2013,07,03,07,07,15.70
2013,07,03,07,08,15.60
2013,07,03,07,09,15.60
2013,07,03,07,10,15.60
2013,07,03,07,11,15.50
2013,07,03,07,12,15.50
2013,07,03,07,13,15.50
2013,07,03,07,14,15.50
2013,07,03,07,15,15.50
2013,07,03,07,16,15.50
2013,07,03,07,17,15.50
2013,07,03,07,18,15.60
2013,07,03,07,19,15.60
2013,07,03,07,20,15.60
2013,07,03,07,21,15.70
2013,07,03,07,22,15.70
2013,07,03,07,23,15.80
2013,07,03,07,24,15.80
2013,07,03,07,25,15.80
2013,07,03,07,26,15.90
2013,07,03,07,27,16.00
2013,07,03,07,28,16.00
2013,07,03,07,29,16.10
2013,07,03,07,30,16.20
2013,07,03,07,31,16.20
2013,07,03,07,32,16.30
2013,07,03,07,33,16.40
2013,07,03,07,34,16.40
2013,07,03,07,35,16.50
2013,07,03,07,36,16.60
2013,07,03,07,37,16.60
2013,07,03,07,38,16.60
2013,07,03,07,39,16.70
2013,07,03,07,40,16.70
2013,07,03,07,41,16.70
2013,07,03,07,42,16.70
2013,07,03,07,43,16.70
2013,07,03,07,44,16.80
2013,07,03,07,45,16.80
2013,07,03,07,46,16.90
2013,07,03,07,47,16.90
2013,07,03,07,48,17.00
2013,07,03,07,49,17.00
2013,07,03,07,50,17.10
2013,07,03,07,51,17.20
2013,07,03,07,52,17.20
2013,07,03,07,53,17.20
2013,07,03,07,54,17.20
2013,07,03,07,55,17.20
2013,07,03,07,56,17.20
2013,07,03,07,57,17.20
2013,07,03,07,58,17.30
2013,07,03,07,59,17.30
2013,07,03,08,00,17.20
2013,07,03,08,01,17.20
2013,07,03,08,02,17.20
2013,07,03,08,03,17.30
2013,07,03,08,04,17.30
2013,07,03,08,05,17.30
2013,07,03,08,06,17.30
2013,07,03,08,07,17.40
2013,07,03,08,08,17.40
2013,07,03,08,09,17.50
2013,07,03,08,10,17.60
2013,07,03,08,11,17.60
2013,07,03,08,12,17.70
2013,07,03,08,13,17.70
2013,07,03,08,14,17.70
2013,07,03,08,15,17.70
2013,07,03,08,16,17.70
2013,07,03,08,17,17.80
2013,07,03,08,18,17.80
2013,07,03,08,19,17.80
2013,07,03,08,20,17.80
2013,07,03,08,21,17.80
2013,07,03,08,22,17.90
2013,07,03,08,23,17.90
2013,07,03,08,24,17.90
2013,07,03,08,25,17.90
2013,07,03,08,26,18.00
2013,07,03,08,27,18.00
2013,07,03,08,28,18.10
2013,07,03,08,29,18.20
2013,07,03,08,30,18.30
2013,07,03,08,31,18.30
2013,07,03,08,32,18.40
2013,07,03,08,33,18.50
2013,07,03,08,34,18.50
2013,07,03,08,35,18.60
2013,07,03,08,36,18.80
2013,07,03,08,37,18.80
2013,07,03,08,38,18.90
2013,07,03,08,39,18.90
2013,07,03,08,40,19.00
2013,07,03,08,41,19.00
2013,07,03,08,42,19.10
2013,07,03,08,43,19.10
2013,07,03,08,44,19.10
2013,07,03,08,45,19.20
2013,07,03,08,46,19.30
2013,07,03,08,47,19.30
2013,07,03,08,48,19.40
2013,07,03,08,49,19.40
2013,07,03,08,50,19.40
2013,07,03,08,51,19.40
2013,07,03,08,52,19.50
2013,07,03,08,53,19.50
2013,07,03,08,54,19.40
2013,07,03,08,55,19.40
2013,07,03,08,56,19.50
2013,07,03,08,57,19.60
2013,07,03,08,58,19.70
2013,07,03,08,59,19.80
2013,07,03,09,00,20.00
2013,07,03,09,01,20.00
2013,07,03,09,02,20.10
2013,07,03,09,03,20.10
2013,07,03,09,04,20.20
2013,07,03,09,05,20.20
2013,07,03,09,06,20.20
2013,07,03,09,07,20.30
2013,07,03,09,08,20.30
2013,07,03,09,09,20.30
2013,07,03,09,10,20.40
2013,07,03,09,11,20.40
2013,07,03,09,12,20.40
2013,07,03,09,13,20.40
2013,07,03,09,14,20.40
2013,07,03,09,15,20.40
2013,07,03,09,16,20.50
2013,07,03,09,17,20.50
2013,07,03,09,18,20.60
2013,07,03,09,19,20.60
2013,07,03,09,20,20.60
2013,07,03,09,21,20.60
2013,07,03,09,22,20.60
2013,07,03,09,23,20.50
2013,07,03,09,24,20.50
2013,07,03,09,25,20.50
2013,07,03,09,26,20.40
2013,07,03,09,27,20.50
2013,07,03,09,28,20.50
2013,07,03,09,29,20.60
2013,07,03,09,30,20.60
2013,07,03,09,31,20.60
2013,07,03,09,32,20.70
2013,07,03,09,33,20.70
2013,07,03,09,34,20.80
2013,07,03,09,35,20.90
2013,07,03,09,36,20.90
2013,07,03,09,37,21.00
2013,07,03,09,38,21.10
2013,07,03,09,39,21.10
2013,07,03,09,40,21.10
2013,07,03,09,41,21.10
2013,07,03,09,42,21.10
2013,07,03,09,43,21.10
2013,07,03,09,44,21.00
2013,07,03,09,45,21.00
2013,07,03,09,46,21.00
2013,07,03,09,47,20.90
2013,07,03,09,48,20.70
2013,07,03,09,49,20.60
2013,07,03,09,50,20.60
2013,07,03,09,51,20.60
2013,07,03,09,52,20.60
2013,07,03,09,53,20.60
2013,07,03,09,54,20.70
2013,07,03,09,55,20.80
2013,07,03,09,56,20.80
2013,07,03,09,57,20.80
2013,07,03,09,58,20.80
2013,07,03,09,59,20.70
2013,07,03,10,00,20.70
2013,07,03,10,01,20.70
2013,07,03,10,02,20.70
2013,07,03,10,03,20.70
2013,07,03,10,04,20.80
2013,07,03,10,05,20.80
2013,07,03,10,06,20.90
2013,07,03,10,07,21.00
2013,07,03,10,08,21.10
2013,07,03,10,09,21.10
2013,07,03,10,10,21.10
2013,07,03,10,11,21.20
2013,07,03,10,12,21.20
2013,07,03,10,13,21.20
2013,07,03,10,14,21.20
2013,07,03,10,15,21.20
2013,07,03,10,16,21.20
2013,07,03,10,17,21.20
2013,07,03,10,18,21.20
2013,07,03,10,19,21.10
2013,07,03,10,20,21.10
2013,07,03,10,21,21.10
2013,07,03,10,22,21.00
2013,07,03,10,23,21.00
2013,07,03,10,24,20.90
2013,07,03,10,25,20.90
2013,07,03,10,26,20.80
2013,07,03,10,27,20.80
2013,07,03,10,28,20.70
2013,07,03,10,29,20.70
2013,07,03,10,30,20.60
2013,07,03,10,31,20.60
2013,07,03,10,32,20.60
2013,07,03,10,33,20.70
2013,07,03,10,34,20.70
2013,07,03,10,35,20.70
2013,07,03,10,36,20.80
2013,07,03,10,37,20.90
2013,07,03,10,38,21.00
2013,07,03,10,39,21.00
2013,07,03,10,40,21.00
2013,07,03,10,41,21.00
2013,07,03,10,42,20.90
2013,07,03,10,43,21.00
2013,07,03,10,44,21.00
2013,07,03,10,45,21.00
2013,07,03,10,46,20.90
2013,07,03,10,47,20.90
2013,07,03,10,48,20.90
2013,07,03,10,49,20.90
2013,07,03,10,50,21.00
2013,07,03,10,51,21.10
2013,07,03,10,52,21.10
2013,07,03,10,53,21.10
2013,07,03,10,54,21.10
2013,07,03,10,55,21.10
2013,07,03,10,56,21.10
2013,07,03,10,57,21.20
2013,07,03,10,58,21.30
2013,07,03,10,59,21.30
2013,07,03,11,00,21.40
2013,07,03,11,01,21.40
2013,07,03,11,02,21.30
2013,07,03,11,03,21.30
2013,07,03,11,04,21.30
2013,07,03,11,05,21.30
2013,07,03,11,06,21.40
2013,07,03,11,07,21.50
2013,07,03,11,08,21.60
2013,07,03,11,09,21.70
2013,07,03,11,10,21.80
2013,07,03,11,11,21.90
2013,07,03,11,12,21.90
2013,07,03,11,13,21.90
2013,07,03,11,14,21.90
2013,07,03,11,15,21.90
2013,07,03,11,16,22.00
2013,07,03,11,17,22.00
2013,07,03,11,18,21.90
2013,07,03,11,19,21.80
2013,07,03,11,20,21.70
2013,07,03,11,21,21.60
2013,07,03,11,22,21.50
2013,07,03,11,23,21.40
2013,07,03,11,24,21.40
2013,07,03,11,25,21.40
2013,07,03,11,26,21.40
2013,07,03,11,27,21.40
2013,07,03,11,28,21.40
2013,07,03,11,29,21.40
2013,07,03,11,30,21.40
2013,07,03,11,31,21.40
2013,07,03,11,32,21.40
2013,07,03,11,33,21.50
2013,07,03,11,34,21.60
2013,07,03,11,35,21.50
2013,07,03,11,36,21.50
2013,07,03,11,37,21.40
2013,07,03,11,38,21.30
2013,07,03,11,39,21.30
2013,07,03,11,40,21.30
2013,07,03,11,41,21.40
2013,07,03,11,42,21.40
2013,07,03,11,43,21.50
2013,07,03,11,44,21.60
2013,07,03,11,45,21.70
2013,07,03,11,46,21.80
2013,07,03,11,47,21.80
2013,07,03,11,48,21.80
2013,07,03,11,49,21.80
2013,07,03,11,50,21.70
2013,07,03,11,51,21.70
2013,07,03,11,52,21.70
2013,07,03,11,53,21.70
2013,07,03,11,54,21.70
2013,07,03,11,55,21.80
2013,07,03,11,56,21.90
2013,07,03,11,57,22.00
2013,07,03,11,58,22.10
2013,07,03,11,59,22.20
2013,07,03,12,00,22.20
2013,07,03,12,01,22.30
2013,07,03,12,02,22.20
2013,07,03,12,03,22.20
2013,07,03,12,04,22.20
2013,07,03,12,05,22.10
2013,07,03,12,06,22.10
2013,07,03,12,07,22.00
2013,07,03,12,08,22.00
2013,07,03,12,09,21.90
2013,07,03,12,10,21.90
2013,07,03,12,11,21.80
2013,07,03,12,12,21.80
2013,07,03,12,13,21.80
2013,07,03,12,14,21.80
2013,07,03,12,15,21.80
2013,07,03,12,16,21.70
2013,07,03,12,17,21.60
2013,07,03,12,18,21.60
2013,07,03,12,19,21.60
2013,07,03,12,20,21.70
2013,07,03,12,21,21.80
2013,07,03,12,22,21.90
2013,07,03,12,23,21.90
2013,07,03,12,24,21.90
2013,07,03,12,25,21.90
2013,07,03,12,26,21.90
2013,07,03,12,27,22.00
2013,07,03,12,28,22.00
2013,07,03,12,29,22.10
2013,07,03,12,30,22.10
2013,07,03,12,31,22.20
2013,07,03,12,32,22.30
2013,07,03,12,33,22.30
2013,07,03,12,34,22.30
2013,07,03,12,35,22.30
2013,07,03,12,36,22.30
2013,07,03,12,37,22.30
2013,07,03,12,38,22.30
2013,07,03,12,39,22.30
2013,07,03,12,40,22.30
2013,07,03,12,41,22.30
2013,07,03,12,42,22.30
2013,07,03,12,43,22.40
2013,07,03,12,44,22.50
2013,07,03,12,45,22.70
2013,07,03,12,46,22.70
2013,07,03,12,47,22.60
2013,07,03,12,48,22.50
2013,07,03,12,49,22.40
2013,07,03,12,50,22.50
2013,07,03,12,51,22.40
2013,07,03,12,52,22.30
2013,07,03,12,53,22.30
2013,07,03,12,54,22.30
2013,07,03,12,55,22.30
2013,07,03,12,56,22.40
2013,07,03,12,57,22.30
2013,07,03,12,58,22.30
2013,07,03,12,59,22.30
2013,07,03,13,00,22.20
2013,07,03,13,01,22.20
2013,07,03,13,02,22.20
2013,07,03,13,03,22.20
2013,07,03,13,04,22.30
2013,07,03,13,05,22.40
2013,07,03,13,06,22.40
2013,07,03,13,07,22.50
2013,07,03,13,08,22.50
2013,07,03,13,09,22.60
2013,07,03,13,10,22.70
2013,07,03,13,11,22.70
2013,07,03,13,12,22.60
2013,07,03,13,13,22.70
2013,07,03,13,14,22.70
2013,07,03,13,15,22.50
2013,07,03,13,16,22.40
2013,07,03,13,17,22.40
2013,07,03,13,18,22.30
2013,07,03,13,19,22.30
2013,07,03,13,20,22.30
2013,07,03,13,21,22.30
2013,07,03,13,22,22.30
2013,07,03,13,23,22.30
2013,07,03,13,24,22.20
2013,07,03,13,25,22.10
2013,07,03,13,26,22.10
2013,07,03,13,27,22.10
2013,07,03,13,28,22.10
2013,07,03,13,29,22.10
2013,07,03,13,30,22.20
2013,07,03,13,31,22.30
2013,07,03,13,32,22.40
2013,07,03,13,33,22.50
2013,07,03,13,34,22.50
2013,07,03,13,35,22.50
2013,07,03,13,36,22.60
2013,07,03,13,37,22.60
2013,07,03,13,38,22.60
2013,07,03,13,39,22.50
2013,07,03,13,40,22.40
2013,07,03,13,41,22.30
2013,07,03,13,42,22.30
2013,07,03,13,43,22.20
2013,07,03,13,44,22.20
2013,07,03,13,45,22.20
2013,07,03,13,46,22.30
2013,07,03,13,47,22.30
2013,07,03,13,48,22.40
2013,07,03,13,49,22.50
2013,07,03,13,50,22.60
2013,07,03,13,51,22.80
2013,07,03,13,52,22.90
2013,07,03,13,53,22.90
2013,07,03,13,54,22.80
2013,07,03,13,55,22.80
2013,07,03,13,56,22.70
2013,07,03,13,57,22.60
2013,07,03,13,58,22.50
2013,07,03,13,59,22.50
2013,07,03,14,00,22.40
2013,07,03,14,01,22.50
2013,07,03,14,02,22.50
2013,07,03,14,03,22.60
2013,07,03,14,04,22.50
2013,07,03,14,05,22.40
2013,07,03,14,06,22.40
2013,07,03,14,07,22.50
2013,07,03,14,08,22.40
2013,07,03,14,09,22.40
2013,07,03,14,10,22.30
2013,07,03,14,11,22.30
2013,07,03,14,12,22.30
2013,07,03,14,13,22.40
2013,07,03,14,14,22.50
2013,07,03,14,15,22.60
2013,07,03,14,16,22.80
2013,07,03,14,17,22.90
2013,07,03,14,18,23.00
2013,07,03,14,19,23.00
2013,07,03,14,20,23.20
2013,07,03,14,21,23.30
2013,07,03,14,22,23.40
2013,07,03,14,23,23.60
2013,07,03,14,24,23.80
2013,07,03,14,25,23.90
2013,07,03,14,26,23.90
2013,07,03,14,27,24.00
2013,07,03,14,28,24.10
2013,07,03,14,29,24.10
2013,07,03,14,30,24.10
2013,07,03,14,31,24.10
2013,07,03,14,32,24.20
2013,07,03,14,33,24.20
2013,07,03,14,34,24.20
2013,07,03,14,35,24.10
2013,07,03,14,36,24.00
2013,07,03,14,37,23.90
2013,07,03,14,38,23.80
2013,07,03,14,39,23.80
2013,07,03,14,40,23.80
2013,07,03,14,41,23.80
2013,07,03,14,42,23.80
2013,07,03,14,43,23.70
2013,07,03,14,44,23.80
2013,07,03,14,45,23.80
2013,07,03,14,46,23.80
2013,07,03,14,47,23.80
2013,07,03,14,48,23.80
2013,07,03,14,49,23.70
2013,07,03,14,50,23.60
2013,07,03,14,51,23.60
2013,07,03,14,52,23.50
2013,07,03,14,53,23.50
2013,07,03,14,54,23.40
2013,07,03,14,55,23.40
2013,07,03,14,56,23.40
2013,07,03,14,57,23.30
2013,07,03,14,58,23.40
2013,07,03,14,59,23.40
2013,07,03,15,00,23.50
2013,07,03,15,01,23.60
2013,07,03,15,02,23.70
2013,07,03,15,03,23.70
2013,07,03,15,04,23.70
2013,07,03,15,05,23.70
2013,07,03,15,06,23.70
2013,07,03,15,07,23.70
2013,07,03,15,08,23.70
2013,07,03,15,09,23.70
2013,07,03,15,10,23.70
2013,07,03,15,11,23.70
2013,07,03,15,12,23.80
2013,07,03,15,13,23.90
2013,07,03,15,14,24.00
2013,07,03,15,15,24.20
2013,07,03,15,16,24.30
2013,07,03,15,17,24.40
2013,07,03,15,18,24.40
2013,07,03,15,19,24.40
2013,07,03,15,20,24.40
2013,07,03,15,21,24.30
2013,07,03,15,22,24.30
2013,07,03,15,23,24.40
2013,07,03,15,24,24.40
2013,07,03,15,25,24.40
2013,07,03,15,26,24.50
2013,07,03,15,27,24.50
2013,07,03,15,28,24.60
2013,07,03,15,29,24.70
2013,07,03,15,30,24.70
2013,07,03,15,31,24.70
2013,07,03,15,32,24.80
2013,07,03,15,33,24.90
2013,07,03,15,34,25.00
2013,07,03,15,35,25.00
2013,07,03,15,36,25.10
2013,07,03,15,37,25.20
2013,07,03,15,38,25.20
2013,07,03,15,39,25.20
2013,07,03,15,40,25.10
2013,07,03,15,41,25.10
2013,07,03,15,42,25.20
2013,07,03,15,43,25.30
2013,07,03,15,44,25.30
2013,07,03,15,45,25.20
2013,07,03,15,46,25.20
2013,07,03,15,47,25.20
2013,07,03,15,48,25.20
2013,07,03,15,49,25.20
2013,07,03,15,50,25.20
2013,07,03,15,51,25.20
2013,07,03,15,52,25.20
2013,07,03,15,53,25.30
2013,07,03,15,54,25.30
2013,07,03,15,55,25.40
2013,07,03,15,56,25.50
2013,07,03,15,57,25.60
2013,07,03,15,58,25.60
2013,07,03,15,59,25.70
2013,07,03,16,00,25.80
2013,07,03,16,01,25.80
2013,07,03,16,02,25.80
2013,07,03,16,03,25.70
2013,07,03,16,04,25.60
2013,07,03,16,05,25.70
2013,07,03,16,06,25.70
2013,07,03,16,07,25.80
2013,07,03,16,08,25.80
2013,07,03,16,09,25.90
2013,07,03,16,10,26.00
2013,07,03,16,11,26.10
2013,07,03,16,12,26.10
2013,07,03,16,13,26.20
2013,07,03,16,14,26.20
2013,07,03,16,15,26.20
2013,07,03,16,16,26.10
2013,07,03,16,17,26.10
2013,07,03,16,18,26.10
2013,07,03,16,19,26.10
2013,07,03,16,20,26.10
2013,07,03,16,21,26.10
2013,07,03,16,22,26.10
2013,07,03,16,23,26.00
2013,07,03,16,24,26.00
2013,07,03,16,25,26.00
2013,07,03,16,26,26.10
2013,07,03,16,27,26.10
2013,07,03,16,28,26.10
2013,07,03,16,29,26.20
2013,07,03,16,30,26.20
2013,07,03,16,31,26.20
2013,07,03,16,32,26.20
2013,07,03,16,33,26.10
2013,07,03,16,34,26.00
2013,07,03,16,35,25.90
2013,07,03,16,36,25.80
2013,07,03,16,37,25.80
2013,07,03,16,38,25.70
2013,07,03,16,39,25.70
2013,07,03,16,40,25.70
2013,07,03,16,41,25.80
2013,07,03,16,42,25.80
2013,07,03,16,43,25.90
2013,07,03,16,44,25.90
2013,07,03,16,45,25.90
2013,07,03,16,46,26.00
2013,07,03,16,47,26.10
2013,07,03,16,48,26.20
2013,07,03,16,49,26.20
2013,07,03,16,50,26.20
2013,07,03,16,51,26.30
2013,07,03,16,52,26.30
2013,07,03,16,53,26.30
2013,07,03,16,54,26.30
2013,07,03,16,55,26.20
2013,07,03,16,56,26.00
2013,07,03,16,57,25.90
2013,07,03,16,58,25.80
2013,07,03,16,59,25.80
2013,07,03,17,00,25.80
2013,07,03,17,01,25.80
2013,07,03,17,02,25.80
2013,07,03,17,03,25.70
2013,07,03,17,04,25.70
2013,07,03,17,05,25.60
2013,07,03,17,06,25.60
2013,07,03,17,07,25.50
2013,07,03,17,08,25.50
2013,07,03,17,09,25.40
2013,07,03,17,10,25.40
2013,07,03,17,11,25.30
2013,07,03,17,12,25.30
2013,07,03,17,13,25.30
2013,07,03,17,14,25.20
2013,07,03,17,15,25.20
2013,07,03,17,16,25.20
2013,07,03,17,17,25.30
2013,07,03,17,18,25.30
2013,07,03,17,19,25.30